Regional Weather Roundup
Issued by NWS

Home | Current Version | Previous Version | Graphics & Text | Print | Product List | Glossary On
Versions: 1 2 3 4 5 6 7 8 9 10 11 12 13 14 15 16 17 18 19 20 21 22 23 24 25 26 27 28 29 30 31 32 33 34 35 36 37 38 39 40 41 42 43 44 45 46 47 48 49 50
853
ASUS44 KJAN 171903
RWRMS

MISSISSIPPI HOURLY WEATHER ROUNDUP
NATIONAL WEATHER SERVICE JACKSON MS
200 PM CDT THU APR 17 2014

NOTE: "FAIR: INDICATES FEW OR NO CLOUDS BELOW 12,000 FEET WITH NO
SIGNIFICANT WEATHER AND/OR OBSTRUCTIONS TO VISIBILITY.

MSZ001>002-007>008-010>013-018>021-025>028-034>036-172000-
NORTHWEST MISSISSIPPI

CITY           SKY/WX    TMP DP  RH WIND       PRES   REMARKS
CLARKSDALE       N/A     66  45  45 CALM      30.26S
CLEVELAND      FAIR      67  46  47 SE8G16    30.24F
GREENWOOD      MOSUNNY   68  45  43 SE9G20    30.23F
GREENVILLE     MOSUNNY   67  47  48 VRB7      30.23F
GRENADA        FAIR      66  46  48 E7        30.25F
OLIVE BRANCH   PTSUNNY   66  41  39 S9        30.25F
OXFORD         FAIR      64  41  42 E6        30.27F
TUNICA         PTCLDY    68  45  42 S7        30.25F
$$

MSZ003>006-009-014>017-022>024-029>033-037>039-172000-
NORTHEAST MISSISSIPPI

CITY           SKY/WX    TMP DP  RH WIND       PRES   REMARKS
BELMONT        FAIR      66  42  42 SE5       30.26F
COLUMBUS AFB   MOSUNNY   69  45  41 SE7       30.27F
CORINTH        FAIR      66  37  34 S9        30.26F
GOLDN TRIANGLE PTSUNNY   66  46  48 E5        30.29F
STARKVILLE     FAIR      64  46  52 S6        30.26F
TUPELO         MOSUNNY   67  43  41 VRB7      30.28S
$$

MSZ040-058-172000-
CENTRAL MISSISSIPPI

CITY           SKY/WX    TMP DP  RH WIND       PRES   REMARKS
JACKSON INTL   CLOUDY    67  49  52 SE3       30.22F
JACKSON HAWKNS CLOUDY    68  48  48 S8        30.22F
MERIDIAN KEY   CLOUDY    67  47  48 E8        30.24F
MERIDIAN NAS   CLOUDY    66  48  52 E7        30.26F
RAYMOND        MOCLDY    66  63  88 E8        30.22S
VICKSBURG      CLOUDY    67  51  56 NE8       30.21F
$$

MSZ059>079-172000-
SOUTH MISSISSIPPI

CITY           SKY/WX    TMP DP  RH WIND       PRES   REMARKS
BROOKHAVEN     CLOUDY    64  54  68 E5        30.22S
COLUMBIA       CLOUDY    66  55  68 MISG      30.20F
HATTIESBURG    CLOUDY    66  53  63 E7        30.22F
MCCOMB         CLOUDY    64  54  69 SE7       30.19F
NATCHEZ        CLOUDY    66  52  59 SE3       30.18F
PINE BELT      CLOUDY    64  52  63 NE10      30.23F
$$

MSZ080>082-172000-
COASTAL MISSISSIPPI

CITY           SKY/WX    TMP DP  RH WIND       PRES   REMARKS
BILOXI         CLOUDY    66  57  73 SE8       30.18F
PASCAGOULA     CLOUDY    69  57  65 NE6       30.19F
GULFPORT       CLOUDY    67  57  70 SE10      30.18F
$$



USA.gov is the U.S. government's official web portal to all federal, state and local government web resources and services.